Weather History for Ludington, MI

Change the Weather History Date:

Friday, October 7, 2011

  Actual Average Record
Temperature  
Mean Temperature 64 °F -  
Max Temperature 78 °F 61 °F 80 °F (1982)
Min Temperature 50 °F 42 °F 26 °F (1964)
Degree Days  
Heating Degree Days 1    
Growing Degree Days 14 (Base 50)    
Moisture  
Dew Point 52 °F    
Average Humidity 70    
Maximum Humidity 94    
Minimum Humidity 36    
Precipitation  
Precipitation 0.00 in - - ()
Sea Level Pressure  
Sea Level Pressure 30.28 in    
Wind  
Wind Speed 4 mph (SSE)    
Max Wind Speed 12 mph    
Max Gust Speed 17 mph    
Visibility 10 miles    
Events      
Averages and records for this station are not official NWS values.
T = Trace of Precipitation, MM = Missing Value Source: NWS Daily Summary

Daily Weather History Graph

Daily Weather History Graph

Search for Another Location

Airport:

Trip Planner

Search our weather history database for the weather conditions in past years. The results will help you decide how hot, cold, wet, or windy it might be!

Date:

Astronomy

Oct. 07, 2011 Rise Set
Actual Time 7:50 AM EDT 7:16 PM EDT
Civil Twilight 7:21 AM EDT 7:44 PM EDT
Nautical Twilight 6:47 AM EDT 8:18 PM EDT
Astronomical Twilight 6:14 AM EDT 8:51 PM EDT
Moon 5:05 PM EDT (10/7) 3:30 AM EDT (10/7)
Length of Visible Light 12h 23m
Length of Day
11h 26m
Waxing Gibbous, 83% of the Moon is Illuminated
Oct 7
Waxing Gibbous
Oct 11
Full
Oct 19
Last Quarter
Oct 26
New
Nov 2
First Quarter

Hourly Weather History & Observations

Time (EDT) Temp. Dew Point Humidity Pressure Visibility Wind Dir Wind Speed Gust Speed Precip Events Conditions
12:15 AM 51.8 °F 50.0 °F 94% 30.26 in 10.0 mi Calm Calm - N/A   Clear
12:35 AM 51.8 °F 50.0 °F 94% 30.26 in 10.0 mi East 3.5 mph - N/A   Clear
12:54 AM 50.0 °F 48.2 °F 94% 30.26 in 10.0 mi East 4.6 mph - N/A   Clear
1:15 AM 51.8 °F 50.0 °F 94% 30.26 in 10.0 mi East 3.5 mph - N/A   Clear
1:35 AM 51.8 °F 50.0 °F 94% 30.26 in 10.0 mi East 3.5 mph - N/A   Clear
1:54 AM 51.8 °F 48.2 °F 88% 30.26 in 10.0 mi East 3.5 mph - N/A   Clear
2:15 AM 53.6 °F 51.8 °F 94% 30.26 in 10.0 mi ESE 3.5 mph - N/A   Clear
2:35 AM 53.6 °F 50.0 °F 88% 30.26 in 10.0 mi SE 3.5 mph - N/A   Clear
2:54 AM 53.6 °F 50.0 °F 88% 30.26 in 10.0 mi Calm Calm - N/A   Clear
3:35 AM 53.6 °F 50.0 °F 88% 30.26 in 10.0 mi SE 3.5 mph - N/A   Clear
3:54 AM 53.6 °F 50.0 °F 88% 30.26 in 10.0 mi ESE 3.5 mph - N/A   Clear
4:15 AM 53.6 °F 50.0 °F 88% 30.26 in 10.0 mi ESE 4.6 mph - N/A   Clear
4:34 AM 53.6 °F 51.8 °F 94% 30.27 in 10.0 mi ESE 3.5 mph - N/A   Clear
4:55 AM 53.6 °F 51.8 °F 94% 30.27 in 10.0 mi Calm Calm - N/A   Clear
5:15 AM 53.6 °F 51.8 °F 94% 30.27 in 10.0 mi ESE 3.5 mph - N/A   Clear
5:34 AM 53.6 °F 50.0 °F 88% 30.28 in 10.0 mi ESE 3.5 mph - N/A   Clear
5:55 AM 53.6 °F 51.8 °F 94% 30.29 in 10.0 mi ESE 4.6 mph - N/A   Clear
6:15 AM 53.6 °F 50.0 °F 88% 30.29 in 10.0 mi East 3.5 mph - N/A   Clear
6:34 AM 50.0 °F 46.4 °F 87% 30.30 in 10.0 mi East 3.5 mph - N/A   Clear
6:55 AM 53.6 °F 51.8 °F 94% 30.31 in 10.0 mi ESE 3.5 mph - N/A   Clear
7:15 AM 53.6 °F 51.8 °F 94% 30.31 in 10.0 mi ESE 3.5 mph - N/A   Clear
7:35 AM 53.6 °F 51.8 °F 94% 30.31 in 10.0 mi ESE 3.5 mph - N/A   Clear
7:55 AM 51.8 °F 50.0 °F 94% 30.32 in 10.0 mi ESE 3.5 mph - N/A   Clear
8:35 AM 53.6 °F 51.8 °F 94% 30.33 in 10.0 mi ESE 4.6 mph - N/A   Clear
9:15 AM 59.0 °F 53.6 °F 82% 30.33 in 10.0 mi ESE 3.5 mph - N/A   Clear
9:35 AM 60.8 °F 53.6 °F 77% 30.33 in 10.0 mi ESE 3.5 mph - N/A   Clear
9:55 AM 62.6 °F 53.6 °F 72% 30.33 in 10.0 mi SSE 3.5 mph - N/A   Clear
10:15 AM 64.4 °F 53.6 °F 68% 30.33 in 10.0 mi South 6.9 mph - N/A   Clear
10:35 AM 69.8 °F 55.4 °F 60% 30.33 in 10.0 mi South 8.1 mph - N/A   Clear
10:55 AM 69.8 °F 55.4 °F 60% 30.33 in 10.0 mi South 6.9 mph - N/A   Clear
11:15 AM 71.6 °F 55.4 °F 57% 30.32 in 10.0 mi SSE 6.9 mph - N/A   Clear
11:35 AM 75.2 °F 57.2 °F 53% 30.32 in 10.0 mi South 3.5 mph - N/A   Clear
11:55 AM 75.2 °F 55.4 °F 50% 30.32 in 10.0 mi South 5.8 mph - N/A   Clear
12:15 PM 75.2 °F 53.6 °F 47% 30.32 in 10.0 mi SSW 9.2 mph - N/A   Clear
12:34 PM 75.2 °F 51.8 °F 44% 30.32 in 10.0 mi SSW 10.4 mph - N/A   Clear
1:34 PM 77.0 °F 51.8 °F 41% 30.29 in 10.0 mi SSW 10.4 mph - N/A   Clear
1:55 PM 77.0 °F 51.8 °F 41% 30.28 in 10.0 mi South 9.2 mph - N/A   Clear
2:15 PM 78.8 °F 50.0 °F 36% 30.27 in 10.0 mi SSW 10.4 mph 17.3 mph N/A   Clear
2:34 PM 78.8 °F 51.8 °F 39% 30.27 in 10.0 mi South 10.4 mph 17.3 mph N/A   Clear
2:55 PM 78.8 °F 53.6 °F 42% 30.26 in 10.0 mi SSW 9.2 mph 17.3 mph N/A   Clear
3:34 PM 77.0 °F 53.6 °F 44% 30.26 in 10.0 mi SSW 11.5 mph - N/A   Clear
4:14 PM 77.0 °F 53.6 °F 44% 30.26 in 10.0 mi SSW 9.2 mph - N/A   Clear
4:35 PM 77.0 °F 53.6 °F 44% 30.26 in 10.0 mi South 8.1 mph 16.1 mph N/A   Clear
5:14 PM 77.0 °F 53.6 °F 44% 30.25 in 10.0 mi South 8.1 mph - N/A   Clear
5:35 PM 77.0 °F 53.6 °F 44% 30.26 in 10.0 mi SSW 6.9 mph - N/A   Clear
5:55 PM 77.0 °F 53.6 °F 44% 30.25 in 10.0 mi South 8.1 mph - N/A   Clear
6:14 PM 77.0 °F 53.6 °F 44% 30.24 in 10.0 mi South 9.2 mph - N/A   Clear
6:35 PM 75.2 °F 53.6 °F 47% 30.24 in 10.0 mi South 6.9 mph - N/A   Clear
6:55 PM 75.2 °F 53.6 °F 47% 30.24 in 10.0 mi South 5.8 mph - N/A   Clear
7:14 PM 73.4 °F 53.6 °F 50% 30.24 in 10.0 mi South 4.6 mph - N/A   Clear
7:35 PM 69.8 °F 53.6 °F 56% 30.24 in 10.0 mi South 4.6 mph - N/A   Clear
7:55 PM 69.8 °F 53.6 °F 56% 30.25 in 10.0 mi SSE 3.5 mph - N/A   Clear
8:14 PM 69.8 °F 55.4 °F 60% 30.25 in 10.0 mi SSE 3.5 mph - N/A   Clear
8:35 PM 64.4 °F 53.6 °F 68% 30.25 in 10.0 mi Calm Calm - N/A   Clear
8:55 PM 64.4 °F 53.6 °F 68% 30.25 in 10.0 mi SE 3.5 mph - N/A   Clear
9:14 PM 66.2 °F 53.6 °F 64% 30.24 in 10.0 mi SE 4.6 mph - N/A   Clear
9:35 PM 64.4 °F 53.6 °F 68% 30.24 in 10.0 mi SE 4.6 mph - N/A   Clear
9:54 PM 64.4 °F 53.6 °F 68% 30.24 in 10.0 mi SE 4.6 mph - N/A   Clear
10:15 PM 68.0 °F 53.6 °F 60% 30.24 in 10.0 mi SSE 6.9 mph - N/A   Clear
10:35 PM 69.8 °F 53.6 °F 56% 30.24 in 10.0 mi SSE 10.4 mph - N/A   Clear
10:55 PM 69.8 °F 53.6 °F 56% 30.24 in 10.0 mi SSE 11.5 mph - N/A   Clear
11:15 PM 69.8 °F 53.6 °F 56% 30.24 in 10.0 mi SSE 10.4 mph - N/A   Clear
11:35 PM 69.8 °F 53.6 °F 56% 30.24 in 10.0 mi South 11.5 mph - N/A   Clear
11:55 PM 69.8 °F 53.6 °F 56% 30.24 in 10.0 mi South 8.1 mph - N/A   Clear